Flag for Netherlands Weather past 2 weeks in Apeldoorn, Netherlands

Now
55 °F

Passing clouds.


Feels Like: 53 °F
Forecast: 46 / 55 °F
Wind: 8 mph from Southwest

Location: Deelen

Current Time: Oct 20, 2014 at 8:40:51 PM

Latest Report: Oct 20, 2014 at 7:55 PM


Visibility: N/A

Pressure: 29.92 "Hg

Humidity: 88%

Dew point: 52 °F

Location of ApeldoornLocation

Historic Weather in Apeldoorn — Graph

°F

Apeldoorn temperature yesterday

Maximum temperature yesterday: 72 °F (at 1:25 PM)
Minimum temperature yesterday: 59 °F (at 2:55 AM)
Average temperature yesterday: 63 °F

Past Weeks' High & Low Weather Summary

 TemperatureHumidityPressure
High72 °F (Oct 18, 3:55 PM)100% (Oct 6, 1:25 AM)30.04 "Hg (Oct 6, 1:25 AM)
Low46 °F (Oct 8, 4:55 AM)63% (Oct 7, 3:55 PM)29.45 "Hg (Oct 7, 9:55 AM)
Average57 °F90%29.79 "Hg
* Reported Oct 5 7:25 PM — Oct 20 7:25 PM, Apeldoorn, Weather by CustomWeather, © 2014

Note: Actual official high and low records may vary slightly from our data, if they occured in-between our weather recording intervals... More about our weather records

Advertising

Apeldoorn weather history for previous 24 hours

 ConditionsComfort  
Time TempWeatherWind HumidityBarometerVisibility
7:25 PM
Oct 20
57 °FMostly cloudy.7 mph82%29.95 "HgN/A
6:55 PM55 °FMore clouds than sun.7 mph82%29.95 "HgN/A
6:25 PM57 °FMore clouds than sun.10 mph77%29.95 "HgN/A
5:55 PM59 °FPartly sunny.12 mph72%29.95 "HgN/A
5:25 PM61 °FScattered clouds.16 mph68%29.95 "HgN/A
4:55 PM61 °FMore clouds than sun.15 mph72%29.95 "HgN/A
4:25 PM61 °FBroken clouds.16 mph77%29.95 "HgN/A
3:55 PM59 °FScattered clouds.12 mph82%29.95 "HgN/A
3:25 PM61 °FBroken clouds.15 mph77%29.95 "HgN/A
2:55 PM61 °FBroken clouds.8 mph77%29.98 "HgN/A
2:25 PM61 °FPassing clouds.14 mph77%29.98 "HgN/A
1:55 PM61 °FScattered clouds.13 mph83%29.98 "HgN/A
1:25 PM59 °FPassing clouds.12 mph88%29.98 "HgN/A
12:55 PM59 °FPartly sunny.9 mph88%30.01 "HgN/A
12:25 PM57 °FLight rain. Broken clouds.10 mph94%30.01 "HgN/A
11:55 AM59 °FBroken clouds.10 mph88%29.98 "HgN/A
11:25 AM57 °FBroken clouds.12 mph94%29.98 "HgN/A
10:55 AM57 °FScattered clouds.12 mph94%29.98 "HgN/A
10:25 AM57 °FPartly sunny.10 mph94%29.98 "HgN/A
9:55 AM57 °FLight rain. Broken clouds.12 mph94%29.98 "HgN/A
9:25 AM57 °FDrizzle. Broken clouds.9 mph88%29.98 "Hg4 mi
8:55 AM57 °FPartly cloudy.12 mph88%29.98 "HgN/A
8:25 AM57 °FMostly cloudy.12 mph88%29.98 "HgN/A
7:55 AM55 °FPassing clouds.10 mph94%29.95 "HgN/A
7:25 AM57 °FPartly cloudy.12 mph88%29.95 "HgN/A
6:55 AM57 °FPartly cloudy.10 mph94%29.95 "HgN/A
5:25 AM57 °FLight rain. Partly cloudy.14 mph94%29.95 "HgN/A
4:55 AM57 °FPartly cloudy.14 mph88%29.95 "HgN/A
4:25 AM57 °FPassing clouds.14 mph94%29.95 "HgN/A
3:55 AM57 °FMostly cloudy.13 mph94%29.95 "HgN/A
3:25 AM57 °FPartly cloudy.13 mph94%29.95 "HgN/A
2:55 AM57 °FPassing clouds.14 mph94%29.95 "HgN/A
2:25 AM59 °FPassing clouds.14 mph88%29.95 "HgN/A
1:55 AM59 °FPassing clouds.16 mph88%29.95 "HgN/A
1:25 AM59 °FPassing clouds.16 mph88%29.95 "HgN/A
12:55 AM59 °FMostly cloudy.15 mph88%29.95 "HgN/A
12:25 AM59 °FMostly cloudy.14 mph88%29.95 "HgN/A
11:55 PM
Oct 19
59 °FPartly cloudy.16 mph88%29.95 "HgN/A
11:25 PM59 °FPassing clouds.15 mph82%29.98 "HgN/A
10:55 PM59 °FPassing clouds.15 mph82%29.98 "HgN/A
10:25 PM59 °FPassing clouds.12 mph82%29.95 "HgN/A
9:55 PM59 °FPassing clouds.9 mph82%29.95 "HgN/A
9:25 PM59 °FCool.12 mph82%29.95 "HgN/A
8:55 PM61 °FCool.12 mph83%29.95 "HgN/A
8:25 PM61 °FPassing clouds.13 mph83%29.92 "HgN/A
Weather by CustomWeather, © 2014

See weather overviewHow to use our weather pages